Time,TemperatureF,DewpointF,PressureIn,WindDirection,WindDirectionDegrees,WindSpeedMPH,WindSpeedGustMPH,Humidity,HourlyPrecipIn,Conditions,Clouds,dailyrainin,SoftwareType,DateUTC
2013-04-08 00:00:00,11.2,6.5,29.70,South,188,3.0,14.0,81,0.00,,,0.00,Wunderground v.1.15,2013-04-08 08:00:00,
2013-04-08 00:05:00,11.3,6.3,29.70,South,184,3.0,14.0,80,0.00,,,0.00,Wunderground v.1.15,2013-04-08 08:05:00,
2013-04-08 00:12:00,10.9,5.9,29.70,South,184,3.0,14.0,80,0.00,,,0.00,Wunderground v.1.15,2013-04-08 08:12:00,
2013-04-08 00:17:00,10.3,5.4,29.70,SSW,194,4.0,14.0,80,0.00,,,0.00,Wunderground v.1.15,2013-04-08 08:17:00,
2013-04-08 00:22:00,10.3,5.4,29.70,SSW,200,5.0,14.0,80,0.00,,,0.00,Wunderground v.1.15,2013-04-08 08:22:00,
2013-04-08 00:27:00,10.3,5.4,29.70,SSW,207,5.0,14.0,80,0.00,,,0.00,Wunderground v.1.15,2013-04-08 08:27:00,
2013-04-08 00:34:00,10.3,5.4,29.70,SSW,205,6.0,14.0,80,0.00,,,0.00,Wunderground v.1.15,2013-04-08 08:34:00,
2013-04-08 00:39:00,10.1,5.2,29.70,SSW,199,6.0,6.0,80,0.00,,,0.00,Wunderground v.1.15,2013-04-08 08:39:00,
2013-04-08 00:44:00,9.9,5.0,29.70,SSW,198,5.0,14.0,80,0.00,,,0.00,Wunderground v.1.15,2013-04-08 08:44:00,
2013-04-08 00:50:00,10.3,5.6,29.70,SSW,204,5.0,14.0,81,0.00,,,0.00,Wunderground v.1.15,2013-04-08 08:50:00,
2013-04-08 00:55:00,10.4,5.7,29.70,SSW,205,5.0,14.0,81,0.00,,,0.00,Wunderground v.1.15,2013-04-08 08:55:00,
2013-04-08 01:01:00,10.6,5.9,29.70,SSW,205,5.0,14.0,81,0.00,,,0.00,Wunderground v.1.15,2013-04-08 09:01:00,
2013-04-08 01:06:00,10.4,5.5,29.70,SSW,201,5.0,14.0,80,0.00,,,0.00,Wunderground v.1.15,2013-04-08 09:06:00,
2013-04-08 01:12:00,10.3,5.6,29.70,SSW,201,4.0,14.0,81,0.00,,,0.00,Wunderground v.1.15,2013-04-08 09:12:00,
2013-04-08 01:18:00,10.6,5.6,29.70,SSW,205,3.0,14.0,80,0.00,,,0.00,Wunderground v.1.15,2013-04-08 09:18:00,
2013-04-08 01:24:00,9.9,5.0,29.69,SSW,208,4.0,14.0,80,0.00,,,0.00,Wunderground v.1.15,2013-04-08 09:24:00,
2013-04-08 01:29:00,9.9,5.0,29.69,SSW,207,5.0,14.0,80,0.00,,,0.00,Wunderground v.1.15,2013-04-08 09:29:00,
2013-04-08 01:34:00,10.0,5.1,29.69,SSW,206,5.0,14.0,80,0.00,,,0.00,Wunderground v.1.15,2013-04-08 09:34:00,
2013-04-08 01:40:00,10.0,5.1,29.69,SW,214,5.0,14.0,80,0.00,,,0.00,Wunderground v.1.15,2013-04-08 09:40:00,
2013-04-08 01:45:00,10.1,4.9,29.69,SSW,212,6.0,14.0,79,0.00,,,0.00,Wunderground v.1.15,2013-04-08 09:45:00,
2013-04-08 01:50:00,10.2,5.0,29.69,SSW,211,6.0,14.0,79,0.00,,,0.00,Wunderground v.1.15,2013-04-08 09:50:00,
2013-04-08 01:56:00,10.4,4.9,29.68,SSW,211,5.0,14.0,78,0.00,,,0.00,Wunderground v.1.15,2013-04-08 09:56:00,
2013-04-08 02:02:00,10.6,4.8,29.68,SW,215,5.0,14.0,77,0.00,,,0.00,Wunderground v.1.15,2013-04-08 10:02:00,
2013-04-08 02:07:00,10.6,4.8,29.68,SSW,208,5.0,14.0,77,0.00,,,0.00,Wunderground v.1.15,2013-04-08 10:07:00,
2013-04-08 02:12:00,10.4,4.6,29.68,SSW,208,5.0,14.0,77,0.00,,,0.00,Wunderground v.1.15,2013-04-08 10:12:00,
2013-04-08 02:18:00,10.6,5.1,29.68,SSW,205,5.0,14.0,78,0.00,,,0.00,Wunderground v.1.15,2013-04-08 10:18:00,
2013-04-08 02:24:00,10.6,5.1,29.68,SSW,206,5.0,14.0,78,0.00,,,0.00,Wunderground v.1.15,2013-04-08 10:24:00,
2013-04-08 02:29:00,10.7,5.2,29.68,SSW,200,5.0,14.0,78,0.00,,,0.00,Wunderground v.1.15,2013-04-08 10:29:00,
2013-04-08 02:34:00,10.9,5.7,29.68,SSW,203,5.0,14.0,79,0.00,,,0.00,Wunderground v.1.15,2013-04-08 10:34:00,
2013-04-08 02:40:00,10.9,5.4,29.67,SSW,194,5.0,14.0,78,0.00,,,0.00,Wunderground v.1.15,2013-04-08 10:40:00,
2013-04-08 02:45:00,11.0,5.2,29.67,SSW,205,5.0,14.0,77,0.00,,,0.00,Wunderground v.1.15,2013-04-08 10:45:00,
2013-04-08 02:51:00,10.7,4.6,29.67,SSW,210,6.0,14.0,76,0.00,,,0.00,Wunderground v.1.15,2013-04-08 10:51:00,
2013-04-08 02:56:00,10.6,4.2,29.67,SSW,210,6.0,14.0,75,0.00,,,0.00,Wunderground v.1.15,2013-04-08 10:56:00,
2013-04-08 03:01:00,10.8,4.4,29.67,SSW,210,5.0,14.0,75,0.00,,,0.00,Wunderground v.1.15,2013-04-08 11:01:00,
2013-04-08 03:08:00,11.2,4.5,29.67,SSW,207,5.0,14.0,74,0.00,,,0.00,Wunderground v.1.15,2013-04-08 11:08:00,
2013-04-08 03:13:00,11.1,4.1,29.67,SSW,210,6.0,14.0,73,0.00,,,0.00,Wunderground v.1.15,2013-04-08 11:13:00,
2013-04-08 03:19:00,11.0,4.3,29.67,SSW,207,6.0,14.0,74,0.00,,,0.00,Wunderground v.1.15,2013-04-08 11:19:00,
2013-04-08 03:25:00,10.9,4.2,29.67,SSW,200,5.0,14.0,74,0.00,,,0.00,Wunderground v.1.15,2013-04-08 11:25:00,
2013-04-08 03:31:00,10.6,4.2,29.67,SSW,205,5.0,14.0,75,0.00,,,0.00,Wunderground v.1.15,2013-04-08 11:31:00,
2013-04-08 03:37:00,10.6,4.5,29.66,SSW,207,6.0,14.0,76,0.00,,,0.00,Wunderground v.1.15,2013-04-08 11:37:00,
2013-04-08 03:42:00,10.5,4.4,29.66,SSW,206,6.0,14.0,76,0.00,,,0.00,Wunderground v.1.15,2013-04-08 11:42:00,
2013-04-08 03:48:00,10.4,4.3,29.66,SSW,205,6.0,14.0,76,0.00,,,0.00,Wunderground v.1.15,2013-04-08 11:48:00,
2013-04-08 03:54:00,10.0,3.9,29.66,SSW,211,6.0,14.0,76,0.00,,,0.00,Wunderground v.1.15,2013-04-08 11:54:00,
2013-04-08 03:59:00,9.9,4.1,29.66,SSW,207,5.0,14.0,77,0.00,,,0.00,Wunderground v.1.15,2013-04-08 11:59:00,
2013-04-08 04:04:00,9.9,4.1,29.66,SSW,203,5.0,14.0,77,0.00,,,0.00,Wunderground v.1.15,2013-04-08 12:04:00,
2013-04-08 04:09:00,9.8,4.0,29.65,SSW,207,5.0,5.0,77,0.00,,,0.00,Wunderground v.1.15,2013-04-08 12:09:00,
2013-04-08 04:15:00,9.9,4.4,29.65,SW,228,4.0,14.0,78,0.00,,,0.00,Wunderground v.1.15,2013-04-08 12:15:00,
2013-04-08 04:20:00,10.1,4.6,29.65,SSW,212,3.0,14.0,78,0.00,,,0.00,Wunderground v.1.15,2013-04-08 12:20:00,
2013-04-08 04:25:00,10.0,4.2,29.65,SSW,207,3.0,14.0,77,0.00,,,0.00,Wunderground v.1.15,2013-04-08 12:25:00,
2013-04-08 04:31:00,9.8,4.3,29.65,SSW,212,4.0,14.0,78,0.00,,,0.00,Wunderground v.1.15,2013-04-08 12:31:00,
2013-04-08 04:36:00,9.8,4.0,29.65,SSW,210,4.0,14.0,77,0.00,,,0.00,Wunderground v.1.15,2013-04-08 12:36:00,
2013-04-08 04:41:00,9.5,3.7,29.65,SW,215,4.0,14.0,77,0.00,,,0.00,Wunderground v.1.15,2013-04-08 12:41:00,
2013-04-08 04:47:00,9.4,3.9,29.65,SW,219,4.0,14.0,78,0.00,,,0.00,Wunderground v.1.15,2013-04-08 12:47:00,
2013-04-08 04:52:00,9.4,3.9,29.64,SW,226,4.0,14.0,78,0.00,,,0.00,Wunderground v.1.15,2013-04-08 12:52:00,
2013-04-08 04:57:00,9.3,3.8,29.64,SW,214,4.0,14.0,78,0.00,,,0.00,Wunderground v.1.15,2013-04-08 12:57:00,
2013-04-08 05:02:00,9.2,3.7,29.64,SSW,205,4.0,5.0,78,0.00,,,0.00,Wunderground v.1.15,2013-04-08 13:02:00,
2013-04-08 05:08:00,9.3,3.8,29.64,SW,219,4.0,5.0,78,0.00,,,0.00,Wunderground v.1.15,2013-04-08 13:08:00,
2013-04-08 05:13:00,9.2,3.7,29.64,SW,223,4.0,5.0,78,0.00,,,0.00,Wunderground v.1.15,2013-04-08 13:13:00,
2013-04-08 05:19:00,9.2,3.7,29.64,SSW,201,4.0,5.0,78,0.00,,,0.00,Wunderground v.1.15,2013-04-08 13:19:00,
2013-04-08 05:25:00,9.0,3.5,29.64,SSW,204,4.0,5.0,78,0.00,,,0.00,Wunderground v.1.15,2013-04-08 13:25:00,
2013-04-08 05:30:00,9.0,3.8,29.63,SW,214,4.0,4.0,79,0.00,,,0.00,Wunderground v.1.15,2013-04-08 13:30:00,
2013-04-08 05:36:00,9.0,3.8,29.63,SW,214,4.0,4.0,79,0.00,,,0.00,Wunderground v.1.15,2013-04-08 13:36:00,
2013-04-08 05:41:00,8.8,3.6,29.63,SSW,204,3.0,3.0,79,0.00,,,0.00,Wunderground v.1.15,2013-04-08 13:41:00,
2013-04-08 05:47:00,8.6,3.4,29.63,SSW,195,3.0,4.0,79,0.00,,,0.00,Wunderground v.1.15,2013-04-08 13:47:00,
2013-04-08 05:53:00,8.5,3.6,29.63,SSW,194,4.0,4.0,80,0.00,,,0.00,Wunderground v.1.15,2013-04-08 13:53:00,
2013-04-08 05:59:00,8.5,3.6,29.62,SW,217,4.0,5.0,80,0.00,,,0.00,Wunderground v.1.15,2013-04-08 13:59:00,
2013-04-08 06:04:00,8.7,3.8,29.62,SSW,212,4.0,7.0,80,0.00,,,0.00,Wunderground v.1.15,2013-04-08 14:04:00,
2013-04-08 06:10:00,8.6,3.7,29.62,SSW,210,4.0,7.0,80,0.00,,,0.00,Wunderground v.1.15,2013-04-08 14:10:00,
2013-04-08 06:15:00,8.7,3.8,29.62,SSW,207,4.0,7.0,80,0.00,,,0.00,Wunderground v.1.15,2013-04-08 14:15:00,
2013-04-08 06:20:00,8.7,3.8,29.62,SSW,204,4.0,7.0,80,0.00,,,0.00,Wunderground v.1.15,2013-04-08 14:20:00,
2013-04-08 06:25:00,8.7,3.8,29.62,SSW,204,4.0,7.0,80,0.00,,,0.00,Wunderground v.1.15,2013-04-08 14:25:00,
2013-04-08 06:31:00,8.8,3.9,29.62,SSW,194,4.0,7.0,80,0.00,,,0.00,Wunderground v.1.15,2013-04-08 14:31:00,
2013-04-08 06:37:00,8.7,3.5,29.62,SSW,194,3.0,7.0,79,0.00,,,0.00,Wunderground v.1.15,2013-04-08 14:37:00,
2013-04-08 06:42:00,8.7,3.8,29.62,SSW,193,4.0,7.0,80,0.00,,,0.00,Wunderground v.1.15,2013-04-08 14:42:00,
2013-04-08 06:47:00,8.6,3.7,29.61,SSW,203,4.0,7.0,80,0.00,,,0.00,Wunderground v.1.15,2013-04-08 14:47:00,
2013-04-08 06:52:00,8.4,3.2,29.61,SSW,207,4.0,7.0,79,0.00,,,0.00,Wunderground v.1.15,2013-04-08 14:52:00,
2013-04-08 06:57:00,8.4,3.2,29.61,SSW,200,4.0,7.0,79,0.00,,,0.00,Wunderground v.1.15,2013-04-08 14:57:00,
2013-04-08 07:04:00,8.6,3.7,29.61,SW,214,4.0,7.0,80,0.00,,,0.00,Wunderground v.1.15,2013-04-08 15:04:00,
2013-04-08 07:09:00,8.8,3.9,29.61,SSW,207,4.0,7.0,80,0.00,,,0.00,Wunderground v.1.15,2013-04-08 15:09:00,
2013-04-08 07:15:00,9.1,4.2,29.61,SW,221,4.0,7.0,80,0.00,,,0.00,Wunderground v.1.15,2013-04-08 15:15:00,
2013-04-08 07:20:00,9.2,4.3,29.61,SW,215,4.0,7.0,80,0.00,,,0.00,Wunderground v.1.15,2013-04-08 15:20:00,
2013-04-08 07:26:00,9.4,4.7,29.61,SW,222,4.0,7.0,81,0.00,,,0.00,Wunderground v.1.15,2013-04-08 15:26:00,
2013-04-08 07:31:00,9.2,4.6,29.61,SW,226,4.0,7.0,81,0.00,,,0.00,Wunderground v.1.15,2013-04-08 15:31:00,
2013-04-08 07:37:00,9.2,4.6,29.60,SSW,212,4.0,7.0,81,0.00,,,0.00,Wunderground v.1.15,2013-04-08 15:37:00,
2013-04-08 07:42:00,9.4,4.7,29.60,SSW,197,3.0,7.0,81,0.00,,,0.00,Wunderground v.1.15,2013-04-08 15:42:00,
2013-04-08 07:47:00,9.6,4.7,29.60,SW,214,3.0,7.0,80,0.00,,,0.00,Wunderground v.1.15,2013-04-08 15:47:00,
2013-04-08 07:53:00,9.9,5.0,29.60,SW,224,3.0,7.0,80,0.00,,,0.00,Wunderground v.1.15,2013-04-08 15:53:00,
2013-04-08 07:59:00,10.0,5.1,29.60,SSW,210,3.0,7.0,80,0.00,,,0.00,Wunderground v.1.15,2013-04-08 15:59:00,
2013-04-08 08:04:00,10.2,5.3,29.60,SW,232,3.0,7.0,80,0.00,,,0.00,Wunderground v.1.15,2013-04-08 16:04:00,
2013-04-08 08:10:00,10.6,5.6,29.60,SW,232,4.0,7.0,80,0.00,,,0.00,Wunderground v.1.15,2013-04-08 16:10:00,
2013-04-08 08:15:00,10.9,5.7,29.60,SW,232,4.0,7.0,79,0.00,,,0.00,Wunderground v.1.15,2013-04-08 16:15:00,
2013-04-08 08:20:00,11.1,5.9,29.59,WSW,247,3.0,7.0,79,0.00,,,0.00,Wunderground v.1.15,2013-04-08 16:20:00,
2013-04-08 08:26:00,11.5,6.0,29.59,West,266,2.0,7.0,78,0.00,,,0.00,Wunderground v.1.15,2013-04-08 16:26:00,
2013-04-08 08:31:00,11.6,5.8,29.59,West,281,2.0,7.0,77,0.00,,,0.00,Wunderground v.1.15,2013-04-08 16:31:00,
2013-04-08 08:37:00,11.9,6.1,29.59,West,263,2.0,7.0,77,0.00,,,0.00,Wunderground v.1.15,2013-04-08 16:37:00,
2013-04-08 08:42:00,12.2,6.1,29.59,West,267,2.0,7.0,76,0.00,,,0.00,Wunderground v.1.15,2013-04-08 16:42:00,
2013-04-08 08:48:00,12.2,6.1,29.58,WSW,245,3.0,7.0,76,0.00,,,0.00,Wunderground v.1.15,2013-04-08 16:48:00,
2013-04-08 08:54:00,12.4,6.3,29.58,WSW,252,3.0,7.0,76,0.00,,,0.00,Wunderground v.1.15,2013-04-08 16:54:00,
2013-04-08 08:59:00,12.5,6.4,29.58,WSW,252,3.0,7.0,76,0.00,,,0.00,Wunderground v.1.15,2013-04-08 16:59:00,
2013-04-08 09:05:00,12.6,6.5,29.58,West,277,3.0,7.0,76,0.00,,,0.00,Wunderground v.1.15,2013-04-08 17:05:00,
2013-04-08 09:10:00,13.1,7.0,29.57,WNW,290,3.0,7.0,76,0.00,,,0.00,Wunderground v.1.15,2013-04-08 17:10:00,
2013-04-08 09:15:00,13.1,6.7,29.57,WSW,243,2.0,7.0,75,0.00,,,0.00,Wunderground v.1.15,2013-04-08 17:15:00,
2013-04-08 09:22:00,13.2,6.8,29.57,West,260,4.0,7.0,75,0.00,,,0.00,Wunderground v.1.15,2013-04-08 17:22:00,
2013-04-08 09:27:00,13.4,6.7,29.57,SW,231,3.0,7.0,74,0.00,,,0.00,Wunderground v.1.15,2013-04-08 17:27:00,
2013-04-08 09:32:00,13.4,7.0,29.57,WSW,246,3.0,7.0,75,0.00,,,0.00,Wunderground v.1.15,2013-04-08 17:32:00,
2013-04-08 09:37:00,13.7,6.9,29.57,West,264,3.0,7.0,74,0.00,,,0.00,Wunderground v.1.15,2013-04-08 17:37:00,
2013-04-08 09:43:00,13.6,6.5,29.57,SW,236,3.0,7.0,73,0.00,,,0.00,Wunderground v.1.15,2013-04-08 17:43:00,
2013-04-08 09:48:00,13.9,7.4,29.56,WSW,256,4.0,7.0,75,0.00,,,0.00,Wunderground v.1.15,2013-04-08 17:48:00,
2013-04-08 09:54:00,14.4,7.3,29.56,NNE,32,1.0,7.0,73,0.00,,,0.00,Wunderground v.1.15,2013-04-08 17:54:00,
2013-04-08 09:59:00,14.7,7.9,29.56,NE,51,2.0,2.0,74,0.00,,,0.00,Wunderground v.1.15,2013-04-08 17:59:00,
2013-04-08 10:06:00,14.7,7.9,29.56,NE,49,2.0,7.0,74,0.00,,,0.00,Wunderground v.1.15,2013-04-08 18:06:00,
2013-04-08 10:11:00,14.5,7.7,29.56,ENE,62,2.0,7.0,74,0.00,,,0.00,Wunderground v.1.15,2013-04-08 18:11:00,
2013-04-08 10:17:00,14.5,8.0,29.56,East,82,2.0,7.0,75,0.00,,,0.00,Wunderground v.1.15,2013-04-08 18:17:00,
2013-04-08 10:22:00,14.3,7.8,29.56,NE,44,2.0,7.0,75,0.00,,,0.00,Wunderground v.1.15,2013-04-08 18:22:00,
2013-04-08 10:27:00,14.2,8.0,29.55,NNW,338,2.0,7.0,76,0.00,,,0.00,Wunderground v.1.15,2013-04-08 18:27:00,
2013-04-08 10:33:00,14.3,8.4,29.55,ENE,72,3.0,7.0,77,0.00,,,0.00,Wunderground v.1.15,2013-04-08 18:33:00,
2013-04-08 10:39:00,14.5,8.3,29.55,NNE,32,3.0,7.0,76,0.00,,,0.00,Wunderground v.1.15,2013-04-08 18:39:00,
2013-04-08 10:44:00,14.7,8.8,29.55,NNE,27,3.0,7.0,77,0.00,,,0.00,Wunderground v.1.15,2013-04-08 18:44:00,
2013-04-08 10:49:00,15.4,8.6,29.55,NW,304,2.0,7.0,74,0.00,,,0.00,Wunderground v.1.15,2013-04-08 18:49:00,
2013-04-08 10:55:00,15.1,8.6,29.54,NNE,22,2.0,7.0,75,0.00,,,0.00,Wunderground v.1.15,2013-04-08 18:55:00,
2013-04-08 11:00:00,15.4,9.2,29.54,NW,326,3.0,4.0,76,0.00,,,0.00,Wunderground v.1.15,2013-04-08 19:00:00,
2013-04-08 11:07:00,15.5,8.7,29.54,NE,47,3.0,7.0,74,0.00,,,0.00,Wunderground v.1.15,2013-04-08 19:07:00,
2013-04-08 11:12:00,15.7,7.3,29.54,West,276,3.0,8.0,69,0.00,,,0.00,Wunderground v.1.15,2013-04-08 19:12:00,
2013-04-08 11:18:00,15.6,6.3,29.54,East,97,5.0,9.0,66,0.00,,,0.00,Wunderground v.1.15,2013-04-08 19:18:00,
2013-04-08 11:24:00,15.7,6.0,29.53,West,274,6.0,10.0,65,0.00,,,0.00,Wunderground v.1.15,2013-04-08 19:24:00,
2013-04-08 11:29:00,15.7,6.0,29.53,NE,44,6.0,6.0,65,0.00,,,0.00,Wunderground v.1.15,2013-04-08 19:29:00,
2013-04-08 11:35:00,16.4,6.0,29.53,NE,40,4.0,7.0,63,0.00,,,0.00,Wunderground v.1.15,2013-04-08 19:35:00,
2013-04-08 11:40:00,16.8,6.4,29.53,NNE,20,3.0,7.0,63,0.00,,,0.00,Wunderground v.1.15,2013-04-08 19:40:00,
2013-04-08 11:46:00,16.5,5.4,29.53,East,85,3.0,7.0,61,0.00,,,0.00,Wunderground v.1.15,2013-04-08 19:46:00,
2013-04-08 11:52:00,16.5,5.4,29.53,NE,47,4.0,8.0,61,0.00,,,0.00,Wunderground v.1.15,2013-04-08 19:52:00,
2013-04-08 11:57:00,16.6,5.5,29.52,NNE,25,4.0,8.0,61,0.00,,,0.00,Wunderground v.1.15,2013-04-08 19:57:00,
2013-04-08 12:02:00,16.4,4.9,29.52,NE,44,5.0,7.0,60,0.00,,,0.00,Wunderground v.1.15,2013-04-08 20:02:00,
2013-04-08 12:07:00,16.4,5.3,29.52,NNE,14,5.0,11.0,61,0.00,,,0.00,Wunderground v.1.15,2013-04-08 20:07:00,
2013-04-08 12:12:00,16.6,5.5,29.52,NNE,12,4.0,7.0,61,0.00,,,0.00,Wunderground v.1.15,2013-04-08 20:12:00,
2013-04-08 12:18:00,15.9,5.2,29.51,ENE,71,7.0,9.0,62,0.00,,,0.00,Wunderground v.1.15,2013-04-08 20:18:00,
2013-04-08 12:24:00,15.6,4.9,29.51,East,84,9.0,14.0,62,0.00,,,0.00,Wunderground v.1.15,2013-04-08 20:24:00,
2013-04-08 12:29:00,15.6,5.2,29.51,ENE,75,10.0,10.0,63,0.00,,,0.00,Wunderground v.1.15,2013-04-08 20:29:00,
2013-04-08 12:35:00,15.5,5.1,29.51,East,86,9.0,11.0,63,0.00,,,0.00,Wunderground v.1.15,2013-04-08 20:35:00,
2013-04-08 12:41:00,15.4,5.0,29.51,ESE,105,10.0,11.0,63,0.00,,,0.00,Wunderground v.1.15,2013-04-08 20:41:00,
2013-04-08 12:47:00,15.2,4.9,29.51,East,100,11.0,13.0,63,0.00,,,0.00,Wunderground v.1.15,2013-04-08 20:47:00,
2013-04-08 12:52:00,15.4,5.0,29.51,SE,124,10.0,11.0,63,0.00,,,0.00,Wunderground v.1.15,2013-04-08 20:52:00,
2013-04-08 12:58:00,15.7,5.0,29.51,East,98,10.0,13.0,62,0.00,,,0.00,Wunderground v.1.15,2013-04-08 20:58:00,
2013-04-08 13:04:00,15.7,5.3,29.51,East,92,10.0,13.0,63,0.00,,,0.00,Wunderground v.1.15,2013-04-08 21:04:00,
2013-04-08 13:09:00,15.7,5.0,29.50,ESE,118,10.0,12.0,62,0.00,,,0.00,Wunderground v.1.15,2013-04-08 21:09:00,
2013-04-08 13:14:00,15.8,5.1,29.50,SE,129,10.0,12.0,62,0.00,,,0.00,Wunderground v.1.15,2013-04-08 21:14:00,
2013-04-08 13:19:00,15.8,5.1,29.50,ESE,109,9.0,10.0,62,0.00,,,0.00,Wunderground v.1.15,2013-04-08 21:19:00,
2013-04-08 13:25:00,16.1,5.4,29.49,SE,129,9.0,11.0,62,0.00,,,0.00,Wunderground v.1.15,2013-04-08 21:25:00,
2013-04-08 13:31:00,16.3,5.5,29.49,SE,129,9.0,10.0,62,0.00,,,0.00,Wunderground v.1.15,2013-04-08 21:31:00,
2013-04-08 13:36:00,15.9,4.8,29.49,ESE,120,10.0,16.0,61,0.00,,,0.00,Wunderground v.1.15,2013-04-08 21:36:00,
2013-04-08 13:42:00,16.0,5.6,29.49,ESE,121,11.0,12.0,63,0.00,,,0.00,Wunderground v.1.15,2013-04-08 21:42:00,
2013-04-08 13:47:00,16.3,5.9,29.48,ESE,114,11.0,12.0,63,0.00,,,0.00,Wunderground v.1.15,2013-04-08 21:47:00,
2013-04-08 13:52:00,16.3,5.5,29.48,ESE,110,10.0,11.0,62,0.00,,,0.00,Wunderground v.1.15,2013-04-08 21:52:00,
2013-04-08 13:58:00,16.5,5.7,29.48,East,96,10.0,12.0,62,0.00,,,0.00,Wunderground v.1.15,2013-04-08 21:58:00,
2013-04-08 14:03:00,16.7,5.9,29.47,ESE,122,10.0,13.0,62,0.00,,,0.00,Wunderground v.1.15,2013-04-08 22:03:00,
2013-04-08 14:09:00,16.8,6.0,29.47,SE,129,9.0,13.0,62,0.00,,,0.00,Wunderground v.1.15,2013-04-08 22:09:00,
2013-04-08 14:14:00,17.3,6.1,29.47,SE,129,9.0,11.0,61,0.00,,,0.00,Wunderground v.1.15,2013-04-08 22:14:00,
2013-04-08 14:20:00,17.3,5.8,29.47,SSE,153,8.0,8.0,60,0.00,,,0.00,Wunderground v.1.15,2013-04-08 22:20:00,
2013-04-08 14:25:00,17.8,6.2,29.47,SE,124,7.0,8.0,60,0.00,,,0.00,Wunderground v.1.15,2013-04-08 22:25:00,
2013-04-08 14:30:00,17.9,6.3,29.46,SSE,164,7.0,7.0,60,0.00,,,0.00,Wunderground v.1.15,2013-04-08 22:30:00,
2013-04-08 14:35:00,18.0,6.4,29.46,SE,129,8.0,10.0,60,0.00,,,0.00,Wunderground v.1.15,2013-04-08 22:35:00,
2013-04-08 14:40:00,17.8,6.2,29.46,SE,124,7.0,16.0,60,0.00,,,0.00,Wunderground v.1.15,2013-04-08 22:40:00,
2013-04-08 14:46:00,17.6,6.1,29.46,East,91,9.0,16.0,60,0.00,,,0.00,Wunderground v.1.15,2013-04-08 22:46:00,
2013-04-08 14:51:00,17.5,6.0,29.46,SE,127,10.0,10.0,60,0.00,,,0.00,Wunderground v.1.15,2013-04-08 22:51:00,
2013-04-08 14:57:00,17.4,5.9,29.45,SSE,150,10.0,13.0,60,0.00,,,0.00,Wunderground v.1.15,2013-04-08 22:57:00,
2013-04-08 15:02:00,17.6,6.4,29.45,SE,127,10.0,10.0,61,0.00,,,0.00,Wunderground v.1.15,2013-04-08 23:02:00,
2013-04-08 15:07:00,17.7,6.5,29.45,SE,124,9.0,12.0,61,0.00,,,0.00,Wunderground v.1.15,2013-04-08 23:07:00,
2013-04-08 15:13:00,18.0,6.4,29.45,SE,145,9.0,11.0,60,0.00,,,0.00,Wunderground v.1.15,2013-04-08 23:13:00,
2013-04-08 15:18:00,17.9,6.0,29.44,SE,135,9.0,15.0,59,0.00,,,0.00,Wunderground v.1.15,2013-04-08 23:18:00,
2013-04-08 15:24:00,17.9,6.0,29.44,ESE,123,10.0,11.0,59,0.00,,,0.00,Wunderground v.1.15,2013-04-08 23:24:00,
2013-04-08 15:29:00,18.2,6.6,29.44,East,94,9.0,15.0,60,0.00,,,0.00,Wunderground v.1.15,2013-04-08 23:29:00,
2013-04-08 15:34:00,18.3,6.4,29.44,SSE,155,9.0,11.0,59,0.00,,,0.00,Wunderground v.1.15,2013-04-08 23:34:00,
2013-04-08 15:39:00,18.3,6.4,29.44,SSE,158,8.0,8.0,59,0.00,,,0.00,Wunderground v.1.15,2013-04-08 23:39:00,
2013-04-08 15:44:00,18.4,6.4,29.43,South,174,8.0,9.0,59,0.00,,,0.00,Wunderground v.1.15,2013-04-08 23:44:00,
2013-04-08 15:51:00,18.7,6.7,29.43,SE,143,7.0,11.0,59,0.00,,,0.00,Wunderground v.1.15,2013-04-08 23:51:00,
2013-04-08 15:56:00,18.8,6.8,29.43,SSE,150,7.0,12.0,59,0.00,,,0.00,Wunderground v.1.15,2013-04-08 23:56:00,
2013-04-08 16:01:00,18.8,6.8,29.42,SSE,149,8.0,12.0,59,0.00,,,0.00,Wunderground v.1.15,2013-04-09 00:01:00,
2013-04-08 16:07:00,18.7,6.4,29.42,ESE,113,8.0,14.0,58,0.00,,,0.00,Wunderground v.1.15,2013-04-09 00:07:00,
2013-04-08 16:13:00,18.8,6.8,29.42,SE,129,9.0,11.0,59,0.00,,,0.00,Wunderground v.1.15,2013-04-09 00:13:00,
2013-04-08 16:18:00,18.9,6.9,29.42,SSE,160,9.0,11.0,59,0.00,,,0.00,Wunderground v.1.15,2013-04-09 00:18:00,
2013-04-08 16:24:00,19.3,7.3,29.41,SSE,149,7.0,9.0,59,0.00,,,0.00,Wunderground v.1.15,2013-04-09 00:24:00,
2013-04-08 16:29:00,19.4,7.0,29.41,SE,144,6.0,7.0,58,0.00,,,0.00,Wunderground v.1.15,2013-04-09 00:29:00,
2013-04-08 16:34:00,19.3,6.5,29.40,SSE,152,8.0,13.0,57,0.00,,,0.00,Wunderground v.1.15,2013-04-09 00:34:00,
2013-04-08 16:40:00,19.2,6.8,29.40,SSE,155,8.0,8.0,58,0.00,,,0.00,Wunderground v.1.15,2013-04-09 00:40:00,
2013-04-08 16:45:00,19.0,7.0,29.40,SE,146,9.0,13.0,59,0.00,,,0.00,Wunderground v.1.15,2013-04-09 00:45:00,
2013-04-08 16:51:00,19.1,7.5,29.39,ESE,117,9.0,11.0,60,0.00,,,0.00,Wunderground v.1.15,2013-04-09 00:51:00,
2013-04-08 16:56:00,19.3,7.3,29.39,ESE,119,9.0,12.0,59,0.00,,,0.00,Wunderground v.1.15,2013-04-09 00:56:00,
2013-04-08 17:01:00,19.1,7.5,29.39,SE,131,9.0,10.0,60,0.00,,,0.00,Wunderground v.1.15,2013-04-09 01:01:00,
2013-04-08 17:07:00,19.1,7.5,29.39,SE,127,10.0,12.0,60,0.00,,,0.00,Wunderground v.1.15,2013-04-09 01:07:00,
2013-04-08 17:12:00,18.8,7.6,29.38,SE,130,10.0,12.0,61,0.00,,,0.00,Wunderground v.1.15,2013-04-09 01:12:00,
2013-04-08 17:18:00,18.9,8.4,29.38,ESE,111,10.0,12.0,63,0.00,,,0.00,Wunderground v.1.15,2013-04-09 01:18:00,
2013-04-08 17:24:00,18.6,8.8,29.37,SE,145,10.0,12.0,65,0.00,,,0.00,Wunderground v.1.15,2013-04-09 01:24:00,
2013-04-08 17:29:00,18.6,8.4,29.37,SSE,156,10.0,14.0,64,0.00,,,0.00,Wunderground v.1.15,2013-04-09 01:29:00,
2013-04-08 17:34:00,18.6,8.8,29.37,ESE,122,10.0,11.0,65,0.00,,,0.00,Wunderground v.1.15,2013-04-09 01:34:00,
2013-04-08 17:40:00,18.9,8.7,29.37,ESE,115,9.0,10.0,64,0.00,,,0.00,Wunderground v.1.15,2013-04-09 01:40:00,
2013-04-08 17:45:00,18.4,7.9,29.36,SSE,164,10.0,13.0,63,0.00,,,0.00,Wunderground v.1.15,2013-04-09 01:45:00,
2013-04-08 17:51:00,18.3,8.5,29.36,SE,145,10.0,12.0,65,0.00,,,0.00,Wunderground v.1.15,2013-04-09 01:51:00,
2013-04-08 17:56:00,18.3,8.5,29.36,SE,129,10.0,13.0,65,0.00,,,0.00,Wunderground v.1.15,2013-04-09 01:56:00,
2013-04-08 18:02:00,18.1,8.6,29.36,ESE,117,11.0,12.0,66,0.00,,,0.00,Wunderground v.1.15,2013-04-09 02:02:00,
2013-04-08 18:07:00,18.1,8.6,29.36,SSE,151,11.0,14.0,66,0.00,,,0.00,Wunderground v.1.15,2013-04-09 02:07:00,
2013-04-08 18:13:00,18.1,8.6,29.35,ESE,114,10.0,12.0,66,0.00,,,0.00,Wunderground v.1.15,2013-04-09 02:13:00,
2013-04-08 18:18:00,18.4,8.6,29.35,SE,135,9.0,12.0,65,0.00,,,0.00,Wunderground v.1.15,2013-04-09 02:18:00,
2013-04-08 18:23:00,18.1,8.0,29.35,SSE,148,9.0,15.0,64,0.00,,,0.00,Wunderground v.1.15,2013-04-09 02:23:00,
2013-04-08 18:29:00,17.9,7.8,29.34,SSE,152,10.0,15.0,64,0.00,,,0.00,Wunderground v.1.15,2013-04-09 02:29:00,
2013-04-08 18:35:00,17.9,8.1,29.34,SE,143,9.0,12.0,65,0.00,,,0.00,Wunderground v.1.15,2013-04-09 02:35:00,
2013-04-08 18:40:00,17.9,8.1,29.34,South,169,9.0,11.0,65,0.00,,,0.00,Wunderground v.1.15,2013-04-09 02:40:00,
2013-04-08 18:45:00,17.8,8.0,29.34,South,174,10.0,12.0,65,0.00,,,0.00,Wunderground v.1.15,2013-04-09 02:45:00,
2013-04-08 18:51:00,17.8,8.0,29.33,SSE,166,10.0,14.0,65,0.00,,,0.00,Wunderground v.1.15,2013-04-09 02:51:00,
2013-04-08 18:57:00,17.6,8.2,29.33,SE,129,11.0,15.0,66,0.00,,,0.00,Wunderground v.1.15,2013-04-09 02:57:00,
2013-04-08 19:03:00,17.6,8.2,29.33,SE,146,11.0,11.0,66,0.00,,,0.00,Wunderground v.1.15,2013-04-09 03:03:00,
2013-04-08 19:08:00,17.5,8.1,29.33,SE,124,11.0,13.0,66,0.00,,,0.00,Wunderground v.1.15,2013-04-09 03:08:00,
2013-04-08 19:13:00,17.6,8.2,29.33,SSE,149,9.0,14.0,66,0.00,,,0.00,Wunderground v.1.15,2013-04-09 03:13:00,
2013-04-08 19:19:00,17.4,8.0,29.32,SSE,150,9.0,14.0,66,0.00,,,0.00,Wunderground v.1.15,2013-04-09 03:19:00,
2013-04-08 19:24:00,17.3,7.9,29.32,SSE,152,10.0,12.0,66,0.00,,,0.00,Wunderground v.1.15,2013-04-09 03:24:00,
2013-04-08 19:30:00,17.1,7.7,29.32,SSE,158,9.0,9.0,66,0.00,,,0.00,Wunderground v.1.15,2013-04-09 03:30:00,
2013-04-08 19:35:00,17.1,7.7,29.32,ESE,117,9.0,14.0,66,0.00,,,0.00,Wunderground v.1.15,2013-04-09 03:35:00,
2013-04-08 19:41:00,17.1,7.7,29.32,ESE,117,10.0,12.0,66,0.00,,,0.00,Wunderground v.1.15,2013-04-09 03:41:00,
2013-04-08 19:46:00,16.8,7.7,29.32,SE,139,10.0,12.0,67,0.00,,,0.00,Wunderground v.1.15,2013-04-09 03:46:00,
2013-04-08 19:51:00,16.5,7.8,29.31,SE,134,9.0,10.0,68,0.00,,,0.00,Wunderground v.1.15,2013-04-09 03:51:00,
2013-04-08 19:57:00,16.2,7.5,29.31,SE,143,9.0,10.0,68,0.00,,,0.00,Wunderground v.1.15,2013-04-09 03:57:00,
2013-04-08 20:00:00,16.1,7.4,29.31,SSE,164,8.0,8.0,68,0.00,,,0.00,Wunderground v.1.15,2013-04-09 04:00:00,
2013-04-08 20:01:00,16.1,7.4,29.31,SE,145,8.0,8.0,68,0.00,,,0.00,Wunderground v.1.15,2013-04-09 04:01:00,
2013-04-08 20:05:00,16.0,7.3,29.31,SSE,150,8.0,8.0,68,0.00,,,0.00,Wunderground v.1.15,2013-04-09 04:05:00,
2013-04-08 20:10:00,15.9,7.5,29.31,SSE,159,8.0,10.0,69,0.00,,,0.00,Wunderground v.1.15,2013-04-09 04:10:00,
2013-04-08 20:12:00,15.9,7.5,29.31,SE,127,8.0,10.0,69,0.00,,,0.00,Wunderground v.1.15,2013-04-09 04:12:00,
2013-04-08 20:17:00,15.7,7.3,29.30,SSE,165,9.0,11.0,69,0.00,,,0.00,Wunderground v.1.15,2013-04-09 04:17:00,
2013-04-08 20:22:00,15.5,7.1,29.30,SSE,150,9.0,13.0,69,0.00,,,0.00,Wunderground v.1.15,2013-04-09 04:22:00,
2013-04-08 20:28:00,15.3,7.3,29.30,SE,134,10.0,13.0,70,0.00,,,0.00,Wunderground v.1.15,2013-04-09 04:28:00,
2013-04-08 20:33:00,15.0,7.0,29.30,SE,139,9.0,10.0,70,0.00,,,0.00,Wunderground v.1.15,2013-04-09 04:33:00,
2013-04-08 20:39:00,14.6,6.9,29.29,ESE,116,9.0,10.0,71,0.00,,,0.00,Wunderground v.1.15,2013-04-09 04:39:00,
2013-04-08 20:45:00,14.2,6.5,29.29,SSE,148,8.0,11.0,71,0.00,,,0.00,Wunderground v.1.15,2013-04-09 04:45:00,
2013-04-08 20:51:00,13.6,6.2,29.29,SE,146,8.0,12.0,72,0.00,,,0.00,Wunderground v.1.15,2013-04-09 04:51:00,
2013-04-08 20:57:00,13.3,6.3,29.29,SSE,152,8.0,12.0,73,0.00,,,0.00,Wunderground v.1.15,2013-04-09 04:57:00,
2013-04-08 21:02:00,13.1,6.1,29.29,SSE,152,9.0,12.0,73,0.00,,,0.00,Wunderground v.1.15,2013-04-09 05:02:00,
2013-04-08 21:08:00,12.9,6.2,29.28,SE,139,9.0,12.0,74,0.00,,,0.00,Wunderground v.1.15,2013-04-09 05:08:00,
2013-04-08 21:14:00,12.6,5.9,29.28,SE,139,9.0,9.0,74,0.00,,,0.00,Wunderground v.1.15,2013-04-09 05:14:00,
2013-04-08 21:20:00,12.3,5.6,29.28,SE,145,9.0,11.0,74,0.00,,,0.00,Wunderground v.1.15,2013-04-09 05:20:00,
2013-04-08 21:25:00,12.3,5.9,29.28,SSE,153,9.0,11.0,75,0.00,,,0.00,Wunderground v.1.15,2013-04-09 05:25:00,
2013-04-08 21:30:00,12.3,5.9,29.28,SE,129,9.0,9.0,75,0.00,,,0.00,Wunderground v.1.15,2013-04-09 05:30:00,
2013-04-08 21:35:00,12.2,5.8,29.28,ESE,110,9.0,12.0,75,0.00,,,0.00,Wunderground v.1.15,2013-04-09 05:35:00,
2013-04-08 21:41:00,11.9,5.5,29.28,ESE,122,10.0,12.0,75,0.00,,,0.00,Wunderground v.1.15,2013-04-09 05:41:00,
2013-04-08 21:47:00,11.7,5.6,29.27,SE,145,9.0,13.0,76,0.00,,,0.00,Wunderground v.1.15,2013-04-09 05:47:00,
2013-04-08 21:52:00,11.7,5.6,29.27,ESE,121,9.0,9.0,76,0.00,,,0.00,Wunderground v.1.15,2013-04-09 05:52:00,
2013-04-08 21:57:00,11.7,5.9,29.27,SE,145,8.0,10.0,77,0.00,,,0.00,Wunderground v.1.15,2013-04-09 05:57:00,
2013-04-08 22:03:00,11.7,5.9,29.27,SE,127,8.0,11.0,77,0.00,,,0.00,Wunderground v.1.15,2013-04-09 06:03:00,
2013-04-08 22:09:00,11.6,5.8,29.26,SE,139,8.0,11.0,77,0.00,,,0.00,Wunderground v.1.15,2013-04-09 06:09:00,
2013-04-08 22:14:00,11.6,5.8,29.26,SE,142,7.0,8.0,77,0.00,,,0.00,Wunderground v.1.15,2013-04-09 06:14:00,
2013-04-08 22:20:00,11.2,5.4,29.26,SE,129,7.0,8.0,77,0.00,,,0.00,Wunderground v.1.15,2013-04-09 06:20:00,
2013-04-08 22:25:00,10.9,5.1,29.26,SE,146,8.0,10.0,77,0.00,,,0.00,Wunderground v.1.15,2013-04-09 06:25:00,
2013-04-08 22:31:00,10.6,4.8,29.26,SE,140,8.0,8.0,77,0.00,,,0.00,Wunderground v.1.15,2013-04-09 06:31:00,
2013-04-08 22:37:00,10.2,4.4,29.26,SE,139,7.0,8.0,77,0.00,,,0.00,Wunderground v.1.15,2013-04-09 06:37:00,
2013-04-08 22:42:00,10.0,4.2,29.25,SE,137,7.0,9.0,77,0.00,,,0.00,Wunderground v.1.15,2013-04-09 06:42:00,
2013-04-08 22:48:00,10.1,4.6,29.25,ESE,117,8.0,9.0,78,0.00,,,0.00,Wunderground v.1.15,2013-04-09 06:48:00,
2013-04-08 22:53:00,10.2,4.4,29.25,SSE,148,8.0,8.0,77,0.00,,,0.00,Wunderground v.1.15,2013-04-09 06:53:00,
2013-04-08 22:59:00,10.2,4.4,29.25,SE,132,7.0,8.0,77,0.00,,,0.00,Wunderground v.1.15,2013-04-09 06:59:00,
2013-04-08 23:04:00,10.2,4.4,29.25,SE,137,8.0,9.0,77,0.00,,,0.00,Wunderground v.1.15,2013-04-09 07:04:00,
2013-04-08 23:09:00,10.2,4.1,29.25,SE,131,8.0,9.0,76,0.00,,,0.00,Wunderground v.1.15,2013-04-09 07:09:00,
2013-04-08 23:15:00,10.4,4.3,29.24,SE,146,8.0,9.0,76,0.00,,,0.00,Wunderground v.1.15,2013-04-09 07:15:00,
2013-04-08 23:20:00,10.8,4.7,29.24,SSE,150,8.0,8.0,76,0.00,,,0.00,Wunderground v.1.15,2013-04-09 07:20:00,
2013-04-08 23:26:00,11.0,4.6,29.24,SE,138,7.0,10.0,75,0.00,,,0.00,Wunderground v.1.15,2013-04-09 07:26:00,
2013-04-08 23:32:00,11.2,4.8,29.24,ESE,115,7.0,7.0,75,0.00,,,0.00,Wunderground v.1.15,2013-04-09 07:32:00,
2013-04-08 23:37:00,11.3,4.9,29.24,SE,139,7.0,9.0,75,0.00,,,0.00,Wunderground v.1.15,2013-04-09 07:37:00,
2013-04-08 23:42:00,11.1,4.7,29.24,SE,143,7.0,8.0,75,0.00,,,0.00,Wunderground v.1.15,2013-04-09 07:42:00,
2013-04-08 23:47:00,10.9,4.2,29.24,SE,129,6.0,8.0,74,0.00,,,0.00,Wunderground v.1.15,2013-04-09 07:47:00,
2013-04-08 23:53:00,10.8,4.4,29.23,SE,146,7.0,8.0,75,0.00,,,0.00,Wunderground v.1.15,2013-04-09 07:53:00,
2013-04-08 23:58:00,11.0,4.6,29.23,SE,134,7.0,9.0,75,0.00,,,0.00,Wunderground v.1.15,2013-04-09 07:58:00,